This is the latest recevied weather packets stored in our database for station/object SV9TNF-56. If no packets are shown the sender has not sent any weather packets the latest 10 day(s).
| Time | Temp. | Humidity | Pressure | Rain* | Wind** | Luminosity | Snow |
|---|---|---|---|---|---|---|---|
| 1787808384 | 26.11° C | 63% | 1017.6 hPa | 0 mm | 14.31 m/s, 264° | - | - |
| 1787808084 | 25.56° C | 62% | 1017.3 hPa | 0 mm | 5.81 m/s, 174° | - | - |
| 1787807784 | 25.56° C | 65% | 1017.3 hPa | 0 mm | 12.96 m/s, 247° | - | - |
| 1787807484 | 25.56° C | 66% | 1017.3 hPa | 0 mm | 13.86 m/s, 238° | - | - |
| 1787807184 | 25.56° C | 64% | 1017.3 hPa | 0 mm | 8.05 m/s, 160° | - | - |
| 1787806883 | 26.11° C | 63% | 1017.3 hPa | 0 mm | 4.92 m/s, 210° | - | - |
| 1787806584 | 26.11° C | 63% | 1017.3 hPa | 0 mm | 16.09 m/s, 170° | - | - |
| 1787806283 | 26.11° C | 62% | 1017.3 hPa | 0 mm | 12.96 m/s, 266° | - | - |
| 1787805983 | 26.11° C | 63% | 1016.9 hPa | 0 mm | 10.28 m/s, 204° | - | - |
| 1787805683 | 26.11° C | 62% | 1016.9 hPa | 0 mm | 8.05 m/s, 222° | - | - |
| 1787805383 | 26.11° C | 62% | 1016.9 hPa | 0 mm | 9.83 m/s, 222° | - | - |
| 1787805083 | 25.56° C | 63% | 1016.9 hPa | 0 mm | 9.83 m/s, 207° | - | - |
| 1787804783 | 25.56° C | 67% | 1016.9 hPa | 0 mm | 5.36 m/s, 54° | - | - |
| 1787804483 | 25.56° C | 68% | 1016.6 hPa | 0 mm | 13.86 m/s, 132° | - | - |
| 1787804182 | 25.56° C | 69% | 1016.9 hPa | 0 mm | 8.05 m/s, 66° | - | - |
| 1787803883 | 25.56° C | 68% | 1016.9 hPa | 0 mm | 4.92 m/s, 265° | - | - |
| 1787803582 | 25.56° C | 68% | 1016.6 hPa | 0 mm | 7.6 m/s, 168° | - | - |
| 1787803282 | 25.56° C | 72% | 1016.9 hPa | 0 mm | 4.47 m/s, 25° | - | - |
| 1787802982 | 25.56° C | 71% | 1016.6 hPa | 0 mm | 11.18 m/s, 149° | - | - |
| 1787802682 | 25.56° C | 71% | 1016.6 hPa | 0 mm | 13.86 m/s, 189° | - | - |
| 1787802382 | 25.56° C | 72% | 1016.6 hPa | 0 mm | 8.05 m/s, 228° | - | - |
| 1787802082 | 25.56° C | 71% | 1016.3 hPa | 0 mm | 12.52 m/s, 234° | - | - |
| 1787801782 | 25.56° C | 69% | 1016.6 hPa | 0 mm | 8.05 m/s, 207° | - | - |
| 1787801482 | 25.56° C | 69% | 1016.6 hPa | 0 mm | 20.56 m/s, 302° | - | - |
| 1787801182 | 26.11° C | 69% | 1016.6 hPa | 0 mm | 25.93 m/s, 307° | - | - |
* Rain latest hour (hover to see other rain measurements)
** Current wind speed in m/s (hover to see current wind gust speed)